This is the latest recevied weather packets stored in our database for station/object N0TKN. If no packets are shown the sender has not sent any weather packets the latest 10 day(s).
| Time | Temp. | Humidity | Pressure | Rain* | Wind** | Luminosity | Snow |
|---|---|---|---|---|---|---|---|
| 1778073325 | 8.33° C | 96% | 1015.3 hPa | 0 mm | - | 133 W/m² | - |
| 1778072725 | 8.33° C | 97% | 1015.5 hPa | 0 mm | - | 89 W/m² | - |
| 1778072125 | 8.33° C | 96% | 1015.3 hPa | 0 mm | - | 90 W/m² | - |
| 1778071525 | 7.78° C | 96% | 1015.4 hPa | 0 mm | - | 70 W/m² | - |
| 1778070925 | 7.78° C | 97% | 1015.6 hPa | 0 mm | - | 47 W/m² | - |
| 1778070325 | 7.78° C | 98% | 1015.5 hPa | 0 mm | - | 69 W/m² | - |
| 1778069726 | 7.22° C | 99% | 1015.4 hPa | 0 mm | - | 44 W/m² | - |
| 1778069126 | 7.22° C | 99% | 1015.6 hPa | 0 mm | - | 25 W/m² | - |
| 1778068526 | 7.22° C | 99% | 1015.6 hPa | 0 mm | - | 18 W/m² | - |
| 1778067926 | 7.22° C | 99% | 1015.1 hPa | 0 mm | - | 16 W/m² | - |
| 1778067328 | 7.22° C | 99% | 1015 hPa | 0 mm | - | 8 W/m² | - |
| 1778066728 | 7.22° C | 99% | 1014.7 hPa | 0 mm | - | 5 W/m² | - |
| 1778066127 | 7.22° C | 99% | 1014.8 hPa | 0 mm | - | 1 W/m² | - |
| 1778065526 | 7.22° C | 99% | 1014.8 hPa | 0 mm | - | 1 W/m² | - |
| 1778064927 | 7.22° C | 99% | 1014.5 hPa | 0 mm | - | 0 W/m² | - |
| 1778064327 | 7.78° C | 99% | 1014.4 hPa | 0 mm | - | 0 W/m² | - |
| 1778063727 | 7.22° C | 99% | 1014.3 hPa | 0 mm | - | 0 W/m² | - |
| 1778063127 | 7.22° C | 99% | 1013.9 hPa | 0 mm | - | 0 W/m² | - |
| 1778062527 | 7.22° C | 99% | 1013.7 hPa | 0.25 mm | - | 0 W/m² | - |
| 1778061928 | 7.78° C | 99% | 1013.8 hPa | 0.25 mm | - | 0 W/m² | - |
| 1778061328 | 7.78° C | 99% | 1013.3 hPa | 0.25 mm | - | 0 W/m² | - |
| 1778060728 | 7.78° C | 99% | 1013.7 hPa | 0.25 mm | - | 0 W/m² | - |
| 1778060128 | 7.78° C | 99% | 1012.8 hPa | 0.25 mm | - | 0 W/m² | - |
| 1778059528 | 7.78° C | 99% | 1012.5 hPa | 0.25 mm | - | 0 W/m² | - |
| 1778058928 | 7.78° C | 99% | 1012.6 hPa | 0 mm | - | 0 W/m² | - |
* Rain latest hour (hover to see other rain measurements)
** Current wind speed in m/s (hover to see current wind gust speed)